Weather Roundup
Issued by NWS

Home | Current Version | Previous Version | Text Only | Print | Product List | Glossary On
Versions: 1 2 3 4 5 6 7 8 9 10 11 12 13 14 15 16 17 18 19 20 21 22 23 24 25 26 27 28 29 30 31 32 33 34 35 36 37 38 39 40 41 42 43 44 45 46 47 48 49 50
000
NZUS93 KARX 210910
HRRWXR

CURRENT HOURLY OBSERVATIONS ACROSS
MUCH OF THE UPPER MISSISSIPPI VALLEY
NATIONAL WEATHER SERVICE LA CROSSE WI
400 AM CDT SUN SEP 21 2014


...SOUTHEAST MINNESOTA...


CITY           SKY/WX    TMP DP  RH WIND       PRES   REMARKS
ROCHESTER      CLEAR     53  50  89 W12       29.89R
ROCHESTER/MAYO FAIR      55  50  81 W23       29.87R
WINONA         PTCLDY    55  50  82 NW13G22   29.83R
AUSTIN         CLEAR     54  48  82 NW15      29.91R
ALBERT LEA     CLEAR     54  50  87 NW8       29.93R
DODGE CENTER   PTCLDY    54  52  94 W13G18    29.90R
PRESTON        CLEAR     54  53  97 NW16G25   29.87R
OWATONNA       CLEAR     54  48  82 W12       29.93R
FARIBAULT      CLEAR     57  48  72 W9G16     29.93R
$$

...ELSEWHERE IN MINNESOTA...


CITY           SKY/WX    TMP DP  RH WIND       PRES   REMARKS
MINNEAPOLIS    PTCLDY    54  46  74 NW17G28   29.91R
INTNL FALLS    CLOUDY    48  47  96 NW8       29.94R
DULUTH         LGT RAIN  53  50  89 N10       29.86R
RED WING       MOCLDY    55  46  71 NW12G23   29.86R
REDWOOD FALLS  CLEAR     53  47  79 NW12      29.99R
MANKATO        CLEAR     54  45  71 NW9       29.95R
WORTHINGTON    CLEAR     54  43  66 NW13      30.05R
FAIRMONT       CLEAR     57  43  58 NW12      29.98R
$$

...SOUTHWEST WISCONSIN...


CITY           SKY/WX    TMP DP  RH WIND       PRES   REMARKS
LA CROSSE      MOCLDY    60  49  66 NW17G30   29.80R
PRAIRIE DU CHI CLEAR     56  51  86 W6        29.84R
BOSCOBEL       CLEAR     57  51  80 SW7       29.81S
LONE ROCK      CLEAR     59  52  77 W9        29.78R
PLATTEVILLE    CLEAR     54  52  93 W9        29.84R
FORT MC COY    CLOUDY    57  47  69 W16G23    29.78R
CAMP DOUGLAS   CLOUDY    55  53  91 W14G28    29.75R
VIROQUA        FAIR      55  51  87 W10G25    29.80R
WIS DELLS      PTCLDY    54  49  85 W8G16     29.75S
$$

...ELSEWHERE IN WISCONSIN...


CITY           SKY/WX    TMP DP  RH WIND       PRES   REMARKS
MILWAUKEE      MOCLDY    60  54  80 W15G24    29.71R
MADISON        CLEAR     56  51  84 W8        29.75S
GREEN BAY      CLOUDY    56  55  97 W8        29.65S
EAU CLAIRE     CLOUDY    52  49  89 W14       29.79R
BLACK RVR FLS  CLOUDY    56  47  71 NW16G25   29.77R
MEDFORD        LGT RAIN  50  49  97 NW8       29.72R
WAUSAU         CLOUDY    54  52  93 NW7       29.68R
WIS RAPIDS     LGT RAIN  54  51  90 W13G20    29.73R FOG
MARSHFIELD     LGT RAIN  53  50  89 NW20G25   29.72R FOG
RICE LAKE      RAIN      51  49  90 W13       29.82R
$$

...NORTHEAST IOWA...


CITY           SKY/WX    TMP DP  RH WIND       PRES   REMARKS
WATERLOO       CLEAR     56  51  84 W13       29.91R
DUBUQUE        CLEAR     53  51  93 W14       29.85F
DECORAH        CLEAR     54  52  94 VRB6      29.86R
MASON CITY     CLEAR     53  49  86 W13       29.96R
CHARLES CITY   CLEAR     55  50  82 W12       29.92R
OELWEIN        CLEAR     55  54  94 W10       29.90S
$$

...ELSEWHERE IN IOWA...


CITY           SKY/WX    TMP DP  RH WIND       PRES   REMARKS
DES MOINES     CLEAR     56  51  84 W8        29.99F
IOWA CITY        N/A     54  52  93 W6        29.93F
FORT DODGE     CLEAR     55  46  71 W7        30.01R
MARSHALLTOWN   CLEAR     56  51  84 W8        29.95S
CEDAR RAPIDS   CLEAR     54  53  97 W9        29.91S
$$

...NORTHERN ILLINOIS...


CITY           SKY/WX    TMP DP  RH WIND       PRES   REMARKS
CHICAGO-OHARE  PTCLDY    62  55  77 W16G25    29.76R
DUPAGE         CLEAR     60  56  86 W13       29.78R
CHICAGO-MIDWAY PTCLDY    64  57  78 W15G25    29.77R
MOLINE         CLEAR     56  51  84 W9        29.90S
ROCKFORD       CLEAR     56  52  86 W6        29.83S
STERLING       CLEAR     55  52  88 W12       29.86S
PEORIA         CLEAR     63  52  67 NW12G21   29.90R
$$

NOTE: "FAIR" INDICATES FEW OR NO CLOUDS BELOW 12,000 FEET WITH NO
SIGNIFICANT WEATHER AND/OR OBSTRUCTIONS TO VISIBILITY. WIND
SPEEDS ARE IN MILES-PER-HOUR.



USA.gov is the U.S. government's official web portal to all federal, state and local government web resources and services.